TimeAKDT,TemperatureF,Dew PointF,Humidity,Sea Level PressureIn,VisibilityMPH,Wind Direction,Wind SpeedMPH,Gust SpeedMPH,PrecipitationIn,Events,Conditions,WindDirDegrees,DateUTC
12:53 AM,43.0,36.0,76,29.90,10.0,SSW,12.7,18.4,N/A,,Overcast,200,2011-10-20 08:53:00
1:53 AM,43.0,36.0,76,29.91,10.0,South,9.2,19.6,N/A,,Overcast,190,2011-10-20 09:53:00
2:53 AM,42.1,36.0,79,29.91,10.0,South,10.4,19.6,N/A,,Overcast,190,2011-10-20 10:53:00
3:53 AM,43.0,36.0,76,29.91,10.0,South,11.5,20.7,N/A,,Mostly Cloudy,190,2011-10-20 11:53:00
4:53 AM,43.0,36.0,76,29.91,10.0,SSW,12.7,-,N/A,,Overcast,200,2011-10-20 12:53:00
5:53 AM,43.0,37.0,80,29.91,10.0,SSW,10.4,18.4,N/A,,Mostly Cloudy,200,2011-10-20 13:53:00
6:53 AM,44.1,36.0,73,29.91,10.0,SSW,12.7,-,N/A,,Overcast,200,2011-10-20 14:53:00
7:53 AM,42.8,35.6,76,29.92,10.0,SW,4.6,-,N/A,,Overcast,230,2011-10-20 15:53:00
8:53 AM,43.0,36.0,76,29.92,10.0,South,8.1,-,N/A,,Overcast,190,2011-10-20 16:53:00
9:53 AM,44.1,36.0,73,29.92,10.0,SSW,12.7,-,N/A,,Overcast,200,2011-10-20 17:53:00
10:53 AM,44.1,36.0,73,29.93,10.0,SSW,10.4,-,N/A,,Overcast,200,2011-10-20 18:53:00
11:53 AM,44.1,36.0,73,29.92,10.0,SSW,16.1,-,N/A,,Overcast,210,2011-10-20 19:53:00
12:53 PM,43.0,36.0,76,29.92,10.0,SSW,23.0,28.8,N/A,,Mostly Cloudy,210,2011-10-20 20:53:00
1:53 PM,43.0,37.9,82,29.93,10.0,SSW,17.3,-,0.00,Rain,Light Rain,200,2011-10-20 21:53:00
2:53 PM,44.1,37.9,79,29.92,10.0,SSW,15.0,23.0,0.00,,Mostly Cloudy,200,2011-10-20 22:53:00
3:53 PM,44.6,37.4,76,29.90,10.0,SSW,19.6,26.5,N/A,,Overcast,210,2011-10-20 23:53:00
4:53 PM,45.0,37.0,74,29.91,10.0,SSW,12.7,21.9,N/A,,Overcast,200,2011-10-21 00:53:00
5:53 PM,45.0,36.0,71,29.90,10.0,South,11.5,-,N/A,,Overcast,190,2011-10-21 01:53:00
6:53 PM,44.1,37.0,76,29.90,10.0,SSW,17.3,23.0,N/A,,Overcast,200,2011-10-21 02:53:00
7:53 PM,44.1,37.0,76,29.90,10.0,SSW,15.0,21.9,N/A,,Overcast,200,2011-10-21 03:53:00
8:53 PM,45.0,35.1,68,29.89,10.0,South,12.7,19.6,N/A,,Partly Cloudy,190,2011-10-21 04:53:00
9:53 PM,43.0,36.0,76,29.89,10.0,Variable,4.6,-,N/A,,Overcast,0,2011-10-21 05:53:00
10:53 PM,42.1,36.0,79,29.88,10.0,NE,6.9,-,N/A,,Overcast,50,2011-10-21 06:53:00
11:53 PM,41.0,37.0,86,29.86,10.0,Calm,Calm,-,N/A,,Overcast,0,2011-10-21 07:53:00